{"data":{"norad_id":56836,"epoch":"2026-05-25T01:03:01.029024Z","epoch_age_seconds":61428,"freshness":"FRESH","line1":"1 56836U 23079P   26145.04376191  .00002028  00000+0  83173-4 0  9995","line2":"2 56836  43.0002  32.6004 0001147 273.2761  86.7959 15.27586829164609","mean_motion":15.27586829,"eccentricity":0.0001147,"inclination_deg":43.0002,"raan_deg":32.6004,"arg_perigee_deg":273.2761,"mean_anomaly_deg":86.7959,"bstar":8.3173e-5,"rev_number":16460,"period_min":94.266327298898,"perigee_km":482.24167193333,"apogee_km":483.81562333289,"semimajor_km":6861.1656476331,"source":"CELESTRAK","updated_at":"2026-05-25T13:38:18.164078Z"}}